Location: Frizzleburg
(41.0764°N, 80.4548°W)
Time: 07:40:01
(UTC+00:00)

Cosmos 1725 Rocket - Pass Details

Date: 17 November 2019
Orbit: 962 x 990 km, 82.9° (Epoch: 07 December)

Event Time Altitude Azimuth Distance (km) Brightness Sun altitude
Rises 11:15:06 0° 196° (SSW) 3,658 7.0 -10.8°
Reaches altitude 10° 11:17:38 10° 200° (SSW) 2,719 6.3 -10.4°
Maximum altitude 11:23:47 61° 280° (W) 1,112 4.0 -9.2°
Drops below altitude 10° 11:30:01 10° 0° (N) 2,753 6.2 -8.1°
Sets 11:32:36 0° 4° (N) 3,708 6.9 -7.7°
